Location: Wien
(48.2082°N, 16.3738°E)
Time: 08:16:05
(UTC+02:00)

UNISAT 6 - Pass Details

Date: 25 April 2024
Orbit: 593 x 668 km, 97.7° (Epoch: 20 May)

Event Time Altitude Azimuth Distance (km) Brightness Sun altitude
Rises 03:29:12 0° 124° (SE) 2,913 ? -19.3°
Reaches altitude 10° 03:31:55 10° 107° (ESE) 1,995 ? -19.0°
Maximum altitude 03:34:56 19° 62° (ENE) 1,488 ? -18.7°
Drops below altitude 10° 03:37:56 10° 18° (NNE) 1,975 ? -18.4°
Sets 03:40:36 0° 0° (N) 2,872 ? -18.1°
